Location: Minneapolis
(45.0000°N, 93.0000°W)
Time: 05:22:36
(UTC-06:00)

Amateur Radio Satellites - All Passes

Search period start: 13 December 2017 04:52
Search period end: 14 December 2017 04:52
Location: Minneapolis, 45.0000°N, 93.0000°W

Satellite Date Start Highest point End Downlink Frequencies (MHz)
Time Altitude Azimuth
CUBESAT XI-V 13 Dec 04:54:23 04:57:12 16° 270° (W) 05:00:03 437.345
AO-85 13 Dec 05:02:53 05:05:21 14° 32° (NNE) 05:07:53 145.980
ITAMSAT 1 13 Dec 05:11:38 05:16:07 31° 295° (WNW) 05:20:36 435.822/435.867
XW-2B 13 Dec 05:16:14 05:18:08 13° 90° (E) 05:20:02 145.730 - 145.750
PCSat 13 Dec 05:16:16 05:20:53 29° 250° (WSW) 05:25:29 145.827
DOVE 4 13 Dec 05:25:04 05:29:41 82° 286° (WNW) 05:34:01 437.250
XW-2F 13 Dec 05:29:20 05:31:59 18° 92° (E) 05:34:36 145.980 - 146.000
BEESAT 3 13 Dec 05:34:01 05:37:55 60° 239° (WSW) 05:41:44 437.485
AO-7 13 Dec 05:36:10 05:43:27 35° 305° (NW) 05:50:44 .
KKS-1 13 Dec 05:37:53 05:41:26 23° 266° (W) 05:45:00 437.445
XW-2C 13 Dec 05:42:22 05:45:41 27° 95° (E) 05:48:57 145.795 - 145.815
FO-29 13 Dec 05:43:39 05:48:22 18° 51° (NE) 05:53:03 435.910
STRAND 1 13 Dec 06:08:32 06:13:19 41° 68° (ENE) 06:18:06 437.568
BEESAT 2 13 Dec 06:09:25 06:13:28 90° 4° (N) 06:17:27 435.950
HO-68 13 Dec 06:13:09 06:18:51 25° 92° (E) 06:24:30 435.675
LilacSat-2 13 Dec 06:16:05 06:19:59 73° 102° (ESE) 06:23:51 437.200
CUTE-I 13 Dec 06:23:58 06:29:13 57° 100° (E) 06:34:26 437.470
STARS 13 Dec 06:26:39 06:29:37 18° 268° (W) 06:32:36 437.465
XW-2D 13 Dec 06:32:56 06:36:47 73° 284° (WNW) 06:40:36 145.860 - 145.880
AO-85 13 Dec 06:41:58 06:46:38 60° 51° (NE) 06:51:39 145.980
NUDT-PHONESAT 13 Dec 06:45:14 06:49:01 79° 283° (WNW) 06:52:45 437.300
KAITUO 1B 13 Dec 06:45:48 06:49:37 74° 284° (WNW) 06:53:23 145.475/437.950
XW-2B 13 Dec 06:48:51 06:52:35 49° 287° (WNW) 06:56:18 145.730 - 145.750
SEEDS 13 Dec 06:50:30 06:54:03 25° 94° (E) 06:57:32 437.485
XW-2F 13 Dec 07:02:40 07:06:12 36° 289° (WNW) 07:09:43 145.980 - 146.000
DOVE 4 13 Dec 07:05:59 07:06:29 10° 304° (NW) 07:06:58 437.250
CUTE 1.7 + AOD 2 13 Dec 07:09:31 07:13:49 66° 101° (E) 07:18:03 437.475
AO-73 13 Dec 07:12:47 07:14:19 12° 89° (E) 07:15:51 145.935
AAUSAT CUBESAT 2 13 Dec 07:15:03 07:18:10 20° 93° (E) 07:21:15 437.432
XW-2C 13 Dec 07:16:35 07:19:45 24° 292° (WNW) 07:22:53 145.795 - 145.815
FO-29 13 Dec 07:24:22 07:32:00 68° 71° (ENE) 07:39:48 435.910
NO-84 13 Dec 07:26:35 07:29:34 56° 138° (SE) 07:32:49 435.350 FM
CUBEBUG 2 13 Dec 07:39:31 07:43:46 82° 103° (ESE) 07:48:06 437.445
UWE-3 13 Dec 07:42:49 07:46:59 50° 99° (E) 07:51:15 435.000/436.395/437.385
XW-2A 13 Dec 07:46:43 07:50:00 42° 99° (E) 07:53:16 145.665 - 145.685
STRAND 1 13 Dec 07:48:19 07:52:37 27° 266° (W) 07:56:56 437.568
LilacSat-2 13 Dec 07:52:45 07:53:40 11° 299° (WNW) 07:54:34 437.200
HO-68 13 Dec 08:00:01 08:07:08 68° 291° (WNW) 08:14:13 435.675
CUTE-I 13 Dec 08:04:50 08:08:52 22° 299° (WNW) 08:12:52 437.470
O/OREOS (USA 219) 13 Dec 08:10:49 08:14:41 27° 104° (ESE) 08:18:33 437.305
ZACube-1 13 Dec 08:11:40 08:15:55 55° 100° (E) 08:20:15 437.345
TIGRISAT 13 Dec 08:19:24 08:22:56 26° 67° (ENE) 08:26:27 435.000
UNISAT 6 13 Dec 08:21:58 08:25:43 30° 68° (ENE) 08:29:25 437.425
AO-85 13 Dec 08:23:08 08:26:45 21° 248° (WSW) 08:30:31 145.980
SEEDS 13 Dec 08:25:58 08:29:44 31° 291° (WNW) 08:33:29 437.485
Oscar 11 13 Dec 08:34:22 08:38:40 55° 100° (E) 08:42:55 .
DELFI C3 13 Dec 08:34:58 08:35:20 10° 88° (E) 08:35:41 145.870
AO-73 13 Dec 08:46:41 08:50:59 72° 286° (WNW) 08:55:23 145.935
CUTE 1.7 + AOD 2 13 Dec 08:46:53 08:49:07 14° 299° (WNW) 08:51:19 437.475
AAUSAT CUBESAT 2 13 Dec 08:49:52 08:53:44 38° 290° (WNW) 08:57:34 437.432
Max Valier Satellite 13 Dec 09:03:56 09:06:07 15° 91° (E) 09:08:17 145.860
NO-84 13 Dec 09:04:16 09:07:02 25° 339° (NNW) 09:10:00 435.350 FM
FO-29 13 Dec 09:11:00 09:17:30 29° 270° (W) 09:24:08 435.910
CUBEBUG 2 13 Dec 09:18:32 09:19:47 11° 300° (WNW) 09:21:03 437.445
UWE-3 13 Dec 09:20:17 09:23:05 17° 296° (WNW) 09:25:58 435.000/436.395/437.385
XW-2A 13 Dec 09:20:39 09:22:19 13° 296° (WNW) 09:24:00 145.665 - 145.685
PRISM 13 Dec 09:30:48 09:34:48 49° 72° (ENE) 09:38:50 437.425
EO-88 13 Dec 09:35:10 09:38:09 23° 95° (E) 09:41:07 145.990 - 145.960
ZACube-1 13 Dec 09:49:05 09:51:48 17° 297° (WNW) 09:54:34 437.345
HO-68 13 Dec 09:49:39 09:53:36 16° 312° (NW) 09:57:34 435.675
O/OREOS (USA 219) 13 Dec 09:49:47 09:53:58 34° 302° (WNW) 09:58:10 437.305
TIGRISAT 13 Dec 09:55:41 09:59:31 31° 264° (W) 10:03:20 435.000
UNISAT 6 13 Dec 09:58:45 10:02:25 27° 265° (W) 10:06:03 437.425
AIST 2D 13 Dec 09:58:54 10:01:58 30° 71° (ENE) 10:05:05 435.315
DELFI C3 13 Dec 10:06:35 10:10:31 68° 285° (WNW) 10:14:25 145.870
QB50P2 13 Dec 10:08:38 10:11:32 18° 64° (ENE) 10:14:26 145.880/145.840
Oscar 11 13 Dec 10:11:37 10:14:21 17° 297° (WNW) 10:17:06 .
DUCHIFAT 1 13 Dec 10:16:51 10:19:20 16° 63° (ENE) 10:21:50 145.980
ESTCUBE 1 13 Dec 10:28:22 10:30:06 12° 88° (E) 10:31:50 437.505/2401.250
Max Valier Satellite 13 Dec 10:36:36 10:40:07 41° 288° (WNW) 10:43:37 145.860
NANOSAT C BR1 13 Dec 10:40:58 10:44:37 30° 68° (ENE) 10:48:18 145.865
NO-84 13 Dec 10:42:57 10:45:14 16° 1° (N) 10:47:38 435.350 FM
EO-79 13 Dec 10:54:47 10:58:48 48° 72° (ENE) 11:02:51 145.935-145.965
BUGSAT 1 13 Dec 11:04:32 11:06:10 12° 61° (ENE) 11:07:49 437.445
PRISM 13 Dec 11:07:47 11:10:20 16° 268° (W) 11:12:54 437.425
EO-88 13 Dec 11:08:40 11:11:44 25° 292° (WNW) 11:14:48 145.990 - 145.960
POLYITAN 1 13 Dec 11:17:10 11:21:21 85° 78° (ENE) 11:25:33 437.675
SPROUT 13 Dec 11:25:45 11:26:45 11° 88° (E) 11:27:44 437.525
AIST 2D 13 Dec 11:32:46 11:35:12 18° 267° (W) 11:37:39 435.315
QB50P2 13 Dec 11:42:59 11:47:00 44° 261° (W) 11:51:02 145.880/145.840
LO-87 13 Dec 11:43:39 11:47:11 73° 284° (WNW) 11:50:42 145.935 - 145.965
nSIGHT-1 13 Dec 11:46:32 11:49:19 27° 139° (SE) 11:52:07 .
DUCHIFAT 1 13 Dec 11:50:31 11:54:35 53° 260° (W) 11:58:40 145.980
ESTCUBE 1 13 Dec 12:02:53 12:07:26 75° 286° (WNW) 12:11:57 437.505/2401.250
Oscar 19 13 Dec 12:04:07 12:08:43 35° 66° (ENE) 12:13:22 437.125/150
VELOX 1 13 Dec 12:07:31 12:10:40 19° 92° (E) 12:13:48 145.980
NANOSAT C BR1 13 Dec 12:16:52 12:20:20 25° 265° (W) 12:23:48 145.865
NO-84 13 Dec 12:20:17 12:23:25 26° 21° (NNE) 12:26:46 435.350 FM
ISS 13 Dec 12:22:33 12:25:42 45° 143° (SE) 12:28:52 437.550
EO-79 13 Dec 12:32:13 12:34:49 16° 269° (W) 12:37:26 145.935-145.965
Gurwin Techsat 1B 13 Dec 12:33:35 12:38:39 47° 69° (ENE) 12:43:44 435.225
BUGSAT 1 13 Dec 12:36:58 12:40:59 68° 257° (WSW) 12:45:00 437.445
RS-15 13 Dec 12:41:29 12:46:54 14° 93° (E) 12:52:19 29.354- 29.394
AO-91 13 Dec 12:42:59 12:47:56 73° 75° (ENE) 12:52:24 145.960
AO-7 13 Dec 12:53:41 13:00:09 26° 50° (NE) 13:06:39 .
YUBILEINY 13 Dec 12:54:40 13:01:55 27° 63° (ENE) 13:09:05 435.215
SPROUT 13 Dec 12:58:54 13:03:08 74° 285° (WNW) 13:07:22 437.525
DX 1 13 Dec 13:08:02 13:11:01 18° 92° (E) 13:13:58 434.975-435.025
ITAMSAT 1 13 Dec 13:16:41 13:18:17 11° 54° (NE) 13:19:52 435.822/435.867
nSIGHT-1 13 Dec 13:22:15 13:25:23 49° 336° (NNW) 13:28:33 .
50 SAT 13 Dec 13:23:29 13:26:01 22° 96° (E) 13:28:30 437.505
VELOX 1 13 Dec 13:43:07 13:47:20 44° 290° (WNW) 13:51:30 145.980
Oscar 19 13 Dec 13:43:28 13:48:02 32° 264° (W) 13:52:39 437.125/150
M-CUBED/EXP-1 PRIME 13 Dec 13:49:58 13:53:56 35° 62° (ENE) 13:58:05 437.505
NO-84 13 Dec 13:57:12 14:01:00 76° 219° (SW) 14:05:03 435.350 FM
ISS 13 Dec 13:59:09 14:02:15 37° 342° (NNW) 14:05:21 437.550
Gurwin Techsat 1B 13 Dec 14:14:30 14:18:48 25° 267° (W) 14:23:08 435.225
AO-91 13 Dec 14:22:17 14:24:41 14° 269° (W) 14:26:59 145.960
ITUPSAT 1 13 Dec 14:27:30 14:29:24 12° 89° (E) 14:31:19 437.325
UKube-1 13 Dec 14:30:21 14:34:41 82° 102° (ESE) 14:38:59 .
DX 1 13 Dec 14:43:16 14:47:26 46° 290° (WNW) 14:51:34 434.975-435.025
AO-7 13 Dec 14:43:42 14:52:00 85° 250° (WSW) 15:00:25 .
RS-15 13 Dec 14:44:43 14:56:42 62° 115° (ESE) 15:08:36 29.354- 29.394
YUBILEINY 13 Dec 14:50:49 14:59:38 75° 266° (W) 15:08:21 435.215
ITAMSAT 1 13 Dec 14:51:38 14:56:49 71° 72° (ENE) 15:02:01 435.822/435.867
50 SAT 13 Dec 14:55:30 14:57:50 19° 292° (WNW) 15:00:09 437.505
DOVE 4 13 Dec 14:55:41 14:59:08 18° 62° (ENE) 15:02:32 437.250
nSIGHT-1 13 Dec 14:59:24 15:02:06 24° 357° (N) 15:04:49 .
CUBESAT XI-V 13 Dec 15:11:03 15:13:15 13° 88° (E) 15:15:27 437.345
M-CUBED/EXP-1 PRIME 13 Dec 15:24:40 15:28:19 27° 261° (W) 15:32:10 437.505
MOZHAYETS 4 13 Dec 15:26:35 15:31:13 72° 102° (ESE) 15:35:50
BEESAT 13 Dec 15:35:37 15:40:20 58° 101° (E) 15:45:00 436.000
NO-84 13 Dec 15:36:15 15:37:48 12° 235° (SW) 15:39:22 435.350 FM
ISS 13 Dec 15:36:32 15:39:19 24° 2° (N) 15:42:06 437.550
SO-50 13 Dec 15:45:26 15:49:43 49° 120° (ESE) 15:54:05 436.795
ITUPSAT 1 13 Dec 16:03:01 16:07:49 79° 285° (WNW) 16:12:34 437.325
UKube-1 13 Dec 16:08:29 16:10:03 12° 301° (WNW) 16:11:38 .
CUTE-I 13 Dec 16:10:09 16:13:37 18° 58° (ENE) 16:17:06 437.470
XW-2F 13 Dec 16:13:02 16:14:34 12° 62° (ENE) 16:16:07 145.980 - 146.000
XW-2C 13 Dec 16:25:51 16:28:29 18° 65° (ENE) 16:31:06 145.795 - 145.815
DOVE 4 13 Dec 16:31:01 16:36:17 71° 258° (WSW) 16:41:26 437.250
ITAMSAT 1 13 Dec 16:33:41 16:36:47 16° 270° (W) 16:39:55 435.822/435.867
nSIGHT-1 13 Dec 16:35:55 16:38:54 34° 17° (NNE) 16:41:53 .
AO-7 13 Dec 16:40:35 16:45:57 18° 271° (W) 16:51:21 .
O/OREOS (USA 219) 13 Dec 16:41:02 16:42:23 11° 45° (NE) 16:43:43 437.305
HO-68 13 Dec 16:44:33 16:50:07 25° 55° (NE) 16:55:40 435.675
CUBESAT XI-V 13 Dec 16:46:25 16:51:09 73° 285° (WNW) 16:55:49 437.345
YUBILEINY 13 Dec 16:50:14 16:54:47 15° 287° (WNW) 16:59:20 435.215
RS-15 13 Dec 16:57:42 17:09:39 52° 320° (NW) 17:21:26 29.354- 29.394
LilacSat-2 13 Dec 16:59:26 17:03:04 45° 72° (ENE) 17:06:46 437.200
MOZHAYETS 4 13 Dec 17:05:17 17:07:48 15° 300° (WNW) 17:10:19
ISS 13 Dec 17:13:08 17:16:20 45° 22° (NNE) 17:19:30 437.550
BEESAT 13 Dec 17:14:24 17:17:40 19° 299° (WNW) 17:20:55 436.000
XW-2D 13 Dec 17:15:23 17:19:08 68° 75° (ENE) 17:22:56 145.860 - 145.880
NUDT-PHONESAT 13 Dec 17:25:29 17:29:06 57° 74° (ENE) 17:32:45 437.300
KKS-1 13 Dec 17:25:31 17:29:53 56° 101° (E) 17:34:13 437.445
SO-50 13 Dec 17:26:39 17:30:25 26° 320° (NW) 17:34:13 436.795
KAITUO 1B 13 Dec 17:26:54 17:30:36 64° 75° (ENE) 17:34:20 145.475/437.950
XW-2B 13 Dec 17:31:12 17:34:58 82° 258° (WSW) 17:38:48 145.730 - 145.750
ITUPSAT 1 13 Dec 17:43:28 17:44:49 11° 304° (NW) 17:46:10 437.325
SEEDS 13 Dec 17:44:00 17:47:18 23° 66° (ENE) 17:50:38 437.485
XW-2F 13 Dec 17:44:28 17:48:11 59° 260° (W) 17:51:56 145.980 - 146.000
CUTE-I 13 Dec 17:47:41 17:53:03 75° 257° (WSW) 17:58:27 437.470
XW-2C 13 Dec 17:58:53 18:02:23 36° 263° (W) 18:05:56 145.795 - 145.815
CUTE 1.7 + AOD 2 13 Dec 18:03:33 18:07:42 57° 73° (ENE) 18:11:55 437.475
AAUSAT CUBESAT 2 13 Dec 18:07:09 18:09:59 18° 64° (ENE) 18:12:50 437.432
AO-73 13 Dec 18:10:51 18:12:14 12° 60° (ENE) 18:13:38 145.935
STARS 13 Dec 18:11:59 18:16:21 71° 102° (ESE) 18:20:41 437.465
nSIGHT-1 13 Dec 18:12:05 18:15:14 52° 215° (SW) 18:18:21 .
PCSat 13 Dec 18:16:44 18:21:12 27° 109° (ESE) 18:25:42 145.827
O/OREOS (USA 219) 13 Dec 18:18:07 18:22:38 74° 64° (ENE) 18:27:06 437.305
STRAND 1 13 Dec 18:19:14 18:20:49 11° 87° (E) 18:22:24 437.568
XW-2A 13 Dec 18:19:57 18:22:23 19° 67° (ENE) 18:24:52 145.665 - 145.685
HO-68 13 Dec 18:29:57 18:37:08 77° 255° (WSW) 18:44:23 435.675
LilacSat-2 13 Dec 18:35:30 18:37:35 14° 269° (W) 18:39:42 437.200
CUBEBUG 2 13 Dec 18:39:14 18:43:27 84° 75° (ENE) 18:47:37 437.445
UWE-3 13 Dec 18:41:34 18:45:34 49° 72° (ENE) 18:49:34 435.000/436.395/437.385
ISS 13 Dec 18:49:46 18:52:45 32° 220° (SW) 18:55:42 437.550
NUDT-PHONESAT 13 Dec 19:02:28 19:03:17 11° 271° (W) 19:04:07 437.300
KKS-1 13 Dec 19:03:11 19:06:00 17° 299° (WNW) 19:08:49 437.445
ZACube-1 13 Dec 19:09:11 19:13:11 51° 73° (ENE) 19:17:14 437.345
RS-15 13 Dec 19:15:31 19:25:49 30° 352° (N) 19:35:49 29.354- 29.394
SEEDS 13 Dec 19:18:54 19:22:47 35° 263° (W) 19:26:42 437.485
BEESAT 3 13 Dec 19:26:49 19:28:37 13° 110° (ESE) 19:30:26 437.485
Oscar 11 13 Dec 19:30:38 19:34:48 52° 73° (ENE) 19:39:02 .
AAUSAT CUBESAT 2 13 Dec 19:41:05 19:45:05 45° 261° (W) 19:49:08 437.432
CUTE 1.7 + AOD 2 13 Dec 19:41:39 19:43:54 14° 271° (W) 19:46:10 437.475
AO-73 13 Dec 19:43:45 19:47:52 75° 258° (WSW) 19:52:01 145.935
STARS 13 Dec 19:49:58 19:52:07 14° 300° (WNW) 19:54:17 437.465
XW-2A 13 Dec 19:52:07 19:54:56 25° 264° (W) 19:57:47 145.665 - 145.685
STRAND 1 13 Dec 19:55:35 20:00:43 89° 102° (ESE) 20:05:48 437.568
PCSat 13 Dec 19:59:04 20:04:19 50° 308° (NW) 20:09:36 145.827
O/OREOS (USA 219) 13 Dec 19:59:43 20:01:23 12° 263° (W) 20:03:03 437.305
EO-88 13 Dec 20:15:20 20:17:21 14° 64° (ENE) 20:19:23 145.990 - 145.960
FO-29 13 Dec 20:18:08 20:24:59 50° 97° (E) 20:30:58 435.910
UWE-3 13 Dec 20:19:52 20:22:19 15° 269° (W) 20:24:45 435.000/436.395/437.385
HO-68 13 Dec 20:22:30 20:26:01 14° 274° (W) 20:29:31 435.675
ZACube-1 13 Dec 20:47:30 20:49:47 14° 270° (W) 20:52:06 437.345
DELFI C3 13 Dec 20:52:53 20:56:52 84° 76° (ENE) 21:00:53 145.870
BEESAT 3 13 Dec 21:01:39 21:05:37 67° 307° (NW) 21:09:37 437.485
Oscar 11 13 Dec 21:08:39 21:11:16 16° 270° (W) 21:13:53 .
Max Valier Satellite 13 Dec 21:16:28 21:20:06 73° 258° (WSW) 21:23:47 145.860
ESTCUBE 1 13 Dec 21:29:29 21:32:05 15° 61° (ENE) 21:34:41 437.505/2401.250
RS-15 13 Dec 21:31:48 21:42:48 38° 27° (NNE) 21:53:15 29.354- 29.394
STRAND 1 13 Dec 21:36:37 21:39:10 14° 303° (WNW) 21:41:42 437.568
BEESAT 2 13 Dec 21:38:55 21:42:56 86° 120° (ESE) 21:47:01 435.950
TIGRISAT 13 Dec 21:44:13 21:48:20 42° 99° (E) 21:52:31 435.000
PCSat 13 Dec 21:46:33 21:49:03 13° 330° (NNW) 21:51:33 145.827
UNISAT 6 13 Dec 21:47:08 21:51:22 50° 100° (E) 21:55:39 437.425
EO-88 13 Dec 21:47:09 21:50:37 43° 261° (W) 21:54:08 145.990 - 145.960
FO-29 13 Dec 22:03:31 22:09:43 34° 299° (WNW) 22:15:19 435.910
LO-87 13 Dec 22:20:52 22:24:20 54° 74° (ENE) 22:27:47 145.935 - 145.965
SPROUT 13 Dec 22:20:52 22:22:27 12° 60° (ENE) 22:24:00 437.525
SO-50 13 Dec 22:34:59 22:37:57 16° 33° (NNE) 22:40:55 436.795
AO-85 13 Dec 22:38:31 22:42:25 90° 132° (SE) 22:46:36 145.980
BEESAT 3 13 Dec 22:42:12 22:43:54 12° 327° (NNW) 22:45:36 437.485
FALCONSAT 3 13 Dec 22:44:10 22:44:53 10° 160° (SSE) 22:45:37 435.103
PRISM 13 Dec 22:44:56 22:49:01 60° 101° (E) 22:53:02 437.425
AIST 2D 13 Dec 22:54:26 22:57:33 27° 96° (E) 23:00:37 435.315
POLYITAN 1 13 Dec 23:01:49 23:03:23 12° 89° (E) 23:04:58 437.675
ESTCUBE 1 13 Dec 23:03:52 23:08:20 66° 258° (WSW) 23:12:52 437.505/2401.250
VELOX 1 13 Dec 23:06:22 23:09:50 23° 65° (ENE) 23:13:19 145.980
BEESAT 2 13 Dec 23:18:45 23:21:13 16° 324° (NW) 23:23:42 435.950
TIGRISAT 13 Dec 23:21:35 23:24:45 20° 295° (WNW) 23:27:58 435.000
UNISAT 6 13 Dec 23:24:50 23:27:43 18° 297° (WNW) 23:30:39 437.425
QB50P2 13 Dec 23:25:53 23:29:20 24° 94° (E) 23:32:47 145.880/145.840
DUCHIFAT 1 13 Dec 23:32:51 23:35:57 20° 93° (E) 23:39:02 145.980
RS-15 13 Dec 23:45:04 23:57:01 88° 54° (NE) 00:08:17 29.354- 29.394
50 SAT 13 Dec 23:53:26 23:53:47 10° 63° (ENE) 23:54:08 437.505
SPROUT 13 Dec 23:53:28 23:57:42 78° 257° (WSW) 00:01:58 437.525
UKube-1 13 Dec 23:54:20 23:55:10 10° 58° (ENE) 23:56:01 .
LO-87 13 Dec 23:57:52 23:58:03 10° 270° (W) 23:58:13 145.935 - 145.965
NANOSAT C BR1 13 Dec 23:58:05 00:02:04 42° 98° (E) 00:06:04 145.865
DX 1 14 Dec 00:05:15 00:08:33 21° 64° (ENE) 00:11:51 434.975-435.025
EO-79 14 Dec 00:12:38 00:16:51 70° 102° (ESE) 00:21:02 145.935-145.965
SO-50 14 Dec 00:14:28 00:19:08 78° 52° (NE) 00:23:53 436.795
BUGSAT 1 14 Dec 00:17:48 00:19:59 14° 91° (E) 00:22:08 437.445
FALCONSAT 3 14 Dec 00:20:37 00:23:11 18° 176° (S) 00:25:45 435.103
AO-85 14 Dec 00:21:03 00:23:30 15° 327° (NNW) 00:26:02 145.980
PRISM 14 Dec 00:21:39 00:23:48 14° 299° (WNW) 00:25:56 437.425
AIST 2D 14 Dec 00:27:53 00:30:33 20° 292° (WNW) 00:33:11 435.315
POLYITAN 1 14 Dec 00:35:25 00:39:36 67° 286° (WNW) 00:43:48 437.675
VELOX 1 14 Dec 00:41:52 00:46:02 40° 262° (W) 00:50:14 145.980
Gurwin Techsat 1B 14 Dec 00:49:01 00:52:06 15° 89° (E) 00:55:11 435.225
MOZHAYETS 4 14 Dec 00:57:00 00:58:10 11° 57° (ENE) 00:59:20
QB50P2 14 Dec 01:01:23 01:05:09 32° 291° (WNW) 01:08:55 145.880/145.840
DUCHIFAT 1 14 Dec 01:07:51 01:11:44 39° 290° (WNW) 01:15:38 145.980
BEESAT 14 Dec 01:09:46 01:11:22 12° 57° (ENE) 01:12:59 436.000
PCSat 14 Dec 01:20:37 01:21:36 10° 25° (NNE) 01:22:35 145.827
50 SAT 14 Dec 01:22:13 01:25:18 48° 260° (W) 01:28:24 437.505
UKube-1 14 Dec 01:26:08 01:30:28 87° 75° (ENE) 01:34:49 .
NANOSAT C BR1 14 Dec 01:34:29 01:37:29 19° 296° (WNW) 01:40:30 145.865
ITUPSAT 1 14 Dec 01:35:26 01:38:48 20° 62° (ENE) 01:42:10 437.325
DX 1 14 Dec 01:40:19 01:44:27 42° 261° (W) 01:48:38 434.975-435.025
EO-79 14 Dec 01:50:08 01:52:02 13° 299° (WNW) 01:53:57 145.935-145.965
BUGSAT 1 14 Dec 01:51:42 01:55:37 51° 288° (WNW) 01:59:33 437.445
Oscar 19 14 Dec 01:52:05 01:57:19 76° 104° (ESE) 02:02:31 437.125/150
SO-50 14 Dec 01:56:31 01:59:02 14° 251° (WSW) 02:01:33 436.795
RS-15 14 Dec 01:58:57 02:07:49 27° 259° (W) 02:16:24 29.354- 29.394
YUBILEINY 14 Dec 01:59:12 02:06:14 28° 80° (E) 02:13:16 435.215
FALCONSAT 3 14 Dec 01:59:19 02:01:35 16° 191° (S) 02:03:49 435.103
AO-91 14 Dec 02:07:49 02:11:19 62° 286° (WNW) 02:14:39 145.960
CUBESAT XI-V 14 Dec 02:15:55 02:18:57 17° 61° (ENE) 02:21:59 437.345
Gurwin Techsat 1B 14 Dec 02:27:18 02:32:37 74° 287° (WNW) 02:37:54 435.225
MOZHAYETS 4 14 Dec 02:30:00 02:34:33 85° 75° (ENE) 02:39:09
BEESAT 14 Dec 02:43:37 02:48:22 84° 75° (ENE) 02:53:08 436.000
AO-7 14 Dec 02:43:41 02:50:42 29° 94° (E) 02:57:39 .
M-CUBED/EXP-1 PRIME 14 Dec 03:01:08 03:04:20 19° 96° (E) 03:07:26 437.505
PCSat 14 Dec 03:01:41 03:06:41 36° 48° (NE) 03:11:39 145.827
ITAMSAT 1 14 Dec 03:03:17 03:07:09 21° 92° (E) 03:10:59 435.822/435.867
ITUPSAT 1 14 Dec 03:11:35 03:16:13 54° 259° (W) 03:20:55 437.325
Oscar 19 14 Dec 03:32:47 03:36:01 17° 301° (WNW) 03:39:14 437.125/150
BEESAT 3 14 Dec 03:39:39 03:42:27 18° 39° (NE) 03:45:13 437.485
CUBESAT XI-V 14 Dec 03:51:15 03:55:50 60° 259° (W) 04:00:29 437.345
YUBILEINY 14 Dec 03:53:28 04:02:14 70° 281° (WNW) 04:11:07 435.215
Gurwin Techsat 1B 14 Dec 04:09:40 04:11:38 12° 306° (NW) 04:13:37 435.225
MOZHAYETS 4 14 Dec 04:11:32 04:12:20 10° 273° (W) 04:13:06
BEESAT 2 14 Dec 04:17:58 04:20:24 15° 36° (NE) 04:22:49 435.950
KKS-1 14 Dec 04:24:59 04:29:25 67° 73° (ENE) 04:33:51 437.445
BEESAT 14 Dec 04:25:14 04:26:45 11° 272° (W) 04:28:17 436.000
DOVE 4 14 Dec 04:28:52 04:32:41 26° 93° (E) 04:36:19 437.250
M-CUBED/EXP-1 PRIME 14 Dec 04:34:34 04:38:59 49° 295° (WNW) 04:43:09 437.505
AO-7 14 Dec 04:35:46 04:44:05 70° 294° (WNW) 04:52:22 .
ITAMSAT 1 14 Dec 04:41:54 04:46:56 54° 290° (WNW) 04:51:56 435.822/435.867
